Location: *
(49.4547°N, 7.9131°E)
Time: 20:58:00
(UTC+00:00)

MOS 1 - Pass Details

Date: 22 September 2019
Orbit: 878 x 892 km, 99.2° (Epoch: 18 October)

Event Time Altitude Azimuth Distance (km) Brightness Sun altitude
Rises 18:26:56 0° 157° (SSE) 3,489 7.1 -10.5°
Reaches altitude 10° 18:29:19 10° 156° (SSE) 2,552 6.3 -10.8°
Maximum altitude 18:34:59 77° 72° (ENE) 918 4.3 -11.7°
Drops below altitude 10° 18:40:41 10° 347° (NNW) 2,562 7.1 -12.6°
Sets 18:43:05 0° 346° (NNW) 3,503 7.8 -13.0°
